TimeEST,TemperatureF,Dew PointF,Humidity,Sea Level PressureIn,VisibilityMPH,Wind Direction,Wind SpeedMPH,Gust SpeedMPH,PrecipitationIn,Events,Conditions,WindDirDegrees,DateUTC
12:53 AM,59.0,48.9,69,30.09,10.0,NNW,11.5,-,N/A,,Clear,330,2012-11-23 05:53:00
1:53 AM,57.9,48.9,72,30.09,10.0,NNW,11.5,-,N/A,,Clear,330,2012-11-23 06:53:00
2:53 AM,57.0,48.9,74,30.08,10.0,NW,9.2,-,N/A,,Clear,320,2012-11-23 07:53:00
3:53 AM,55.9,48.9,77,30.08,10.0,NW,6.9,-,N/A,,Clear,320,2012-11-23 08:53:00
4:53 AM,55.9,48.9,77,30.08,10.0,NNW,9.2,-,N/A,,Clear,330,2012-11-23 09:53:00
5:53 AM,57.0,50.0,77,30.09,10.0,NNW,10.4,-,N/A,,Clear,330,2012-11-23 10:53:00
6:53 AM,57.9,50.0,75,30.10,10.0,NNW,11.5,-,N/A,,Partly Cloudy,340,2012-11-23 11:53:00
7:53 AM,61.0,50.0,67,30.12,10.0,NNW,9.2,-,N/A,,Partly Cloudy,340,2012-11-23 12:53:00
8:53 AM,66.0,52.0,60,30.13,10.0,NNW,11.5,-,N/A,,Partly Cloudy,340,2012-11-23 13:53:00
9:53 AM,69.1,53.1,57,30.14,10.0,NNW,11.5,-,N/A,,Scattered Clouds,340,2012-11-23 14:53:00
10:53 AM,72.0,55.0,55,30.13,10.0,NNW,11.5,-,N/A,,Partly Cloudy,330,2012-11-23 15:53:00
11:53 AM,73.9,55.0,52,30.11,10.0,North,10.4,-,N/A,,Mostly Cloudy,350,2012-11-23 16:53:00
12:53 PM,77.0,55.9,48,30.08,10.0,NNW,9.2,-,N/A,,Partly Cloudy,330,2012-11-23 17:53:00
1:53 PM,75.9,55.9,50,30.06,10.0,NNW,9.2,-,N/A,,Overcast,330,2012-11-23 18:53:00
2:53 PM,78.1,55.0,45,30.05,10.0,NNW,12.7,-,N/A,,Mostly Cloudy,330,2012-11-23 19:53:00
3:53 PM,73.9,57.0,55,30.04,10.0,NNE,10.4,-,N/A,,Mostly Cloudy,30,2012-11-23 20:53:00
4:53 PM,73.0,57.0,57,30.05,10.0,North,8.1,-,N/A,,Partly Cloudy,10,2012-11-23 21:53:00
5:53 PM,70.0,55.9,61,30.07,10.0,NNW,6.9,-,N/A,,Partly Cloudy,340,2012-11-23 22:53:00
6:53 PM,69.1,51.1,53,30.08,10.0,North,8.1,-,N/A,,Partly Cloudy,350,2012-11-23 23:53:00
7:53 PM,66.9,52.0,59,30.09,10.0,NNW,6.9,-,N/A,,Partly Cloudy,330,2012-11-24 00:53:00
8:53 PM,64.9,52.0,63,30.10,10.0,NNW,5.8,-,N/A,,Partly Cloudy,330,2012-11-24 01:53:00
9:53 PM,64.0,53.1,67,30.10,10.0,NW,5.8,-,N/A,,Partly Cloudy,320,2012-11-24 02:53:00
10:53 PM,63.0,54.0,72,30.10,10.0,NW,5.8,-,N/A,,Clear,320,2012-11-24 03:53:00
11:53 PM,61.0,55.0,81,30.09,10.0,NW,5.8,-,N/A,,Clear,320,2012-11-24 04:53:00